[[{"header":{"parameterUnit":"m.s-1","parameterCategory":1,"la1":30.2991,"la2":30.254,"lo1":-89.0895,"lo2":-89.0444,"dy":0.0017,"dx":0.0017,"nx":28,"ny":28,"refTime":"2024-03-25T09:00:00:Z","depth":0,"parameterNumber":2,"parameterNumberName":"U-component_of_WINDS"},"data":[0,0,0,0,0,0,0,0,0,0,0,0,0,0,0,0,0,0,0,0,0,0,0,0,0,0,0,0,0,0,0,0,0,0,0,0,0,0,0,0,0,0,0,0,0,0,0,0,0,0,0,0,0,0,0,0,0,0,-0.2571,-0.257,0,-0.2524,-0.2523,-0.2523,-0.2512,-0.2512,-0.2513,-0.2513,-0.2459,-0.2457,-0.2455,0,0,0,0,0,0,0,0,0,0,0,0,0,-0.2647,-0.2646,-0.2571,-0.257,-0.257,-0.2524,-0.2523,-0.2522,-0.2512,-0.2512,-0.2513,-0.2513,-0.2459,-0.2457,-0.2455,0,0,0,0,0,0,0,0,0,0,0,0,0,-0.2608,-0.2645,-0.2571,-0.2559,-0.2557,-0.2524,-0.2523,-0.2522,-0.2512,-0.2512,-0.2513,-0.2513,-0.246,-0.2458,-0.2455,-0.2428,0,0,-0.2447,-0.2446,0,0,0,0,0,0,0,0,-0.2611,-0.2605,-0.2561,-0.256,-0.2558,-0.2524,-0.253,-0.249,-0.2512,-0.2529,-0.2513,-0.2514,-0.248,-0.2476,-0.2465,-0.2426,-0.2423,-0.2447,-0.2445,-0.2444,-0.2443,0,0,0,0,0,0,0,-0.2613,-0.2607,-0.2552,-0.2561,-0.2559,-0.2555,-0.255,-0.2523,-0.2502,-0.2527,-0.2527,-0.2521,-0.2479,-0.2468,-0.2464,-0.2422,-0.2447,-0.2444,-0.2443,-0.2442,-0.236,-0.2359,0,0,0,0,0,0,-0.2619,-0.261,-0.2553,-0.255,-0.2586,-0.2553,-0.2547,-0.2534,-0.2502,-0.2498,-0.2521,-0.2521,-0.2472,-0.2467,-0.2462,-0.243,-0.2444,-0.2441,-0.244,-0.236,-0.236,-0.2359,0,0,0,0,0,0,-0.262,-0.2614,-0.2555,-0.258,-0.2572,-0.2551,-0.2537,-0.2533,-0.2522,-0.2497,-0.2493,-0.2514,-0.2472,-0.2466,-0.2437,-0.2428,-0.244,-0.2438,-0.2361,-0.236,-0.2359,-0.2364,0,0,0,0,0,0,-0.2623,-0.2614,-0.2605,-0.258,-0.2571,-0.2533,-0.2536,-0.2532,-0.2518,-0.2518,-0.249,-0.2485,-0.2472,-0.2441,-0.2435,-0.2424,-0.2436,-0.2362,-0.2361,-0.2359,-0.2364,-0.2363,-0.2362,0,0,0,0,0,-0.2625,-0.2606,-0.2604,-0.2598,-0.2559,-0.2532,-0.2527,-0.2514,-0.2518,-0.2507,-0.2492,-0.2486,-0.243,-0.2439,-0.2431,-0.2419,-0.2362,-0.2361,-0.236,-0.2365,-0.2363,-0.2362,0,0,0,0,0,0,-0.2628,-0.2603,-0.26,-0.2573,-0.2555,-0.253,-0.2517,-0.2513,-0.2492,-0.2492,-0.2475,-0.2469,-0.2442,-0.2427,-0.2438,-0.2392,-0.2396,-0.2393,-0.2403,-0.2401,-0.24,-0.2404,-0.2433,0,0,0,0,0,-0.2626,-0.2608,-0.2586,-0.2564,-0.2556,-0.2538,-0.2526,-0.2518,-0.2498,-0.2489,-0.2471,-0.2451,-0.2429,-0.2414,-0.2392,-0.2363,-0.2356,-0.2351,-0.235,-0.2349,-0.2346,-0.2331,-0.2329,-0.2355,-0.2355,-0.2355,0,0,-0.262,-0.2605,-0.2594,-0.2564,-0.255,-0.253,-0.2531,-0.251,-0.2496,-0.2485,-0.2458,-0.2445,-0.242,-0.2392,-0.2378,-0.2379,-0.2338,-0.2347,-0.2347,-0.2345,-0.2329,-0.2327,-0.2325,-0.2354,-0.2354,-0.2354,0,0,-0.2601,-0.2587,-0.2568,-0.2554,-0.2532,-0.2521,-0.2517,-0.2493,-0.2485,-0.2458,-0.245,-0.2432,-0.2393,-0.2377,-0.2364,-0.234,-0.2335,-0.2333,-0.2327,-0.2312,-0.231,-0.2308,-0.2301,-0.2298,-0.2331,-0.2331,-0.2331,0,-0.2596,-0.2568,-0.2558,-0.2538,-0.2526,-0.2519,-0.2499,-0.2485,-0.2456,-0.2447,-0.2449,-0.2403,-0.2386,-0.2354,-0.2349,-0.2338,-0.2332,-0.2336,-0.2312,-0.231,-0.2308,-0.23,-0.2297,-0.2331,-0.2331,-0.2331,-0.2331,0,-0.2564,-0.2545,-0.2532,-0.2508,-0.2494,-0.2474,-0.2459,-0.2446,-0.244,-0.2428,-0.2401,-0.2381,-0.2356,-0.2348,-0.234,-0.2315,-0.2317,-0.2315,-0.2319,-0.2306,-0.2298,-0.2295,-0.2331,-0.2331,-0.2331,-0.2331,0,0,-0.2543,-0.2516,-0.2511,-0.2501,-0.2477,-0.2462,-0.2442,-0.2419,-0.2409,-0.2389,-0.2372,-0.2341,-0.2341,-0.2326,-0.2316,-0.2304,-0.2288,-0.2304,-0.2303,-0.2302,-0.2259,-0.2261,-0.2257,-0.2284,-0.2283,-0.2283,-0.2262,0,-0.2521,-0.2487,-0.2478,-0.2449,-0.2431,-0.2425,-0.2408,-0.2391,-0.238,-0.2363,-0.2349,-0.2328,-0.2329,-0.232,-0.2307,-0.2292,-0.2279,-0.2294,-0.2267,-0.2266,-0.2273,-0.2253,-0.2254,-0.2235,-0.2259,-0.2258,-0.2258,0,-0.249,-0.2474,-0.2443,-0.2425,-0.2417,-0.2401,-0.2381,-0.2365,-0.2346,-0.2339,-0.2323,-0.2316,-0.2294,-0.2299,-0.2269,-0.228,-0.2268,-0.2259,-0.2258,-0.2255,-0.2261,-0.225,-0.2228,-0.2226,-0.2253,-0.2253,-0.2254,0,-0.2479,-0.2449,-0.2427,-0.2418,-0.2395,-0.2385,-0.2375,-0.2357,-0.2344,-0.2326,-0.2318,-0.2296,-0.2284,-0.2268,-0.2254,-0.2259,-0.2225,-0.2229,-0.2218,-0.2219,-0.2211,-0.2211,-0.2187,-0.2203,-0.2204,-0.2204,-0.2204,0,-0.2455,-0.2436,-0.2422,-0.2409,-0.2388,-0.2378,-0.2357,-0.2346,-0.2331,-0.2315,-0.2307,-0.2292,-0.2276,-0.2258,-0.2247,-0.2224,-0.2219,-0.2212,-0.2209,-0.2212,-0.2213,-0.2204,-0.2205,-0.2203,-0.2203,-0.2203,-0.2203,0,-0.2438,-0.2428,-0.2404,-0.2386,-0.238,-0.2366,-0.235,-0.2336,-0.2326,-0.2306,-0.23,-0.2283,-0.2262,-0.2248,-0.222,-0.2213,-0.2188,-0.2186,-0.2195,-0.2194,-0.2184,-0.2186,-0.2154,-0.2149,-0.2168,-0.2168,-0.2168,0,-0.2423,-0.241,-0.2391,-0.2381,-0.2371,-0.2354,-0.2343,-0.2332,-0.232,-0.2299,-0.2288,-0.2267,-0.225,-0.2216,-0.2201,-0.218,-0.2177,-0.2167,-0.2173,-0.2178,-0.2177,-0.2178,-0.2177,-0.2166,-0.2166,-0.2166,-0.2165,0,-0.2399,-0.2395,-0.2379,-0.2363,-0.235,-0.2335,-0.232,-0.2312,-0.2299,-0.2286,-0.2266,-0.2252,-0.2226,-0.2205,-0.2184,-0.2171,-0.2166,-0.2164,-0.216,-0.2164,-0.217,-0.2167,-0.2193,-0.2164,-0.2165,-0.2165,-0.2165,-0.2165,-0.2383,-0.2371,-0.2357,-0.234,-0.2328,-0.2316,-0.2303,-0.2292,-0.2276,-0.2255,-0.2249,-0.2229,-0.2211,-0.2182,-0.217,-0.2152,-0.2153,-0.2148,-0.2146,-0.2145,-0.2146,-0.2173,-0.2148,-0.2148,-0.2148,-0.2148,-0.2148,0,-0.2358,-0.2349,-0.2334,-0.2316,-0.2303,-0.2301,-0.2286,-0.2274,-0.2257,-0.2242,-0.2226,-0.2204,-0.2184,-0.2168,-0.2148,-0.2138,-0.2135,-0.2133,-0.2133,-0.2131,-0.2146,-0.2151,-0.2135,-0.2135,-0.2135,-0.2135,-0.2135,-0.2135,-0.2344,-0.2324,-0.2319,-0.2294,-0.2285,-0.2266,-0.2257,-0.2245,-0.2234,-0.221,-0.2195,-0.2185,-0.217,-0.2149,-0.2131,-0.2127,-0.212,-0.2118,-0.2113,-0.2128,-0.2129,-0.2131,-0.2136,-0.2117,-0.2117,-0.21,-0.2099,-0.2099]},{"header":{"parameterUnit":"m.s-1","parameterCategory":1,"la1":30.2991,"la2":30.254,"lo1":-89.0895,"lo2":-89.0444,"dy":0.0017,"dx":0.0017,"nx":28,"ny":28,"refTime":"2024-03-25T09:00:00:Z","depth":0,"parameterNumber":3,"parameterNumberName":"V-component_of_WINDS"},"data":[0,0,0,0,0,0,0,0,0,0,0,0,0,0,0,0,0,0,0,0,0,0,0,0,0,0,0,0,0,0,0,0,0,0,0,0,0,0,0,0,0,0,0,0,0,0,0,0,0,0,0,0,0,0,0,0,0,0,1.2186,1.2186,0,1.2181,1.218,1.218,1.2158,1.2157,1.2157,1.2156,1.2149,1.215,1.215,0,0,0,0,0,0,0,0,0,0,0,0,0,1.2176,1.2176,1.2186,1.2186,1.2186,1.2181,1.218,1.218,1.2158,1.2157,1.2157,1.2156,1.2149,1.215,1.215,0,0,0,0,0,0,0,0,0,0,0,0,0,1.2176,1.2177,1.2186,1.2174,1.2173,1.2181,1.218,1.218,1.2158,1.2157,1.2156,1.2156,1.2149,1.215,1.215,1.2169,0,0,1.2152,1.2152,0,0,0,0,0,0,0,0,1.2176,1.2177,1.2176,1.2175,1.2174,1.2169,1.2174,1.2176,1.2158,1.2164,1.2156,1.2155,1.2157,1.2156,1.2157,1.2168,1.2168,1.2152,1.2152,1.2152,1.2152,0,0,0,0,0,0,0,1.2176,1.2177,1.2184,1.2176,1.2175,1.2169,1.2168,1.2175,1.2165,1.2163,1.2162,1.2161,1.2156,1.2157,1.2157,1.2168,1.2152,1.2152,1.2152,1.2152,1.2192,1.2193,0,0,0,0,0,0,1.2178,1.2177,1.2184,1.2184,1.2173,1.2169,1.2168,1.2171,1.2164,1.2163,1.2162,1.216,1.2156,1.2156,1.2156,1.2177,1.2152,1.2152,1.2153,1.2191,1.2192,1.2193,0,0,0,0,0,0,1.2178,1.2179,1.2184,1.218,1.218,1.217,1.2174,1.2172,1.2172,1.2163,1.2161,1.2165,1.2156,1.2156,1.2165,1.2176,1.2153,1.2153,1.2191,1.2192,1.2193,1.2218,0,0,0,0,0,0,1.2178,1.2179,1.2187,1.218,1.2181,1.2194,1.2175,1.2172,1.2173,1.2171,1.2166,1.2164,1.2155,1.2165,1.2166,1.2176,1.2153,1.219,1.2191,1.2192,1.2216,1.222,1.2223,0,0,0,0,0,1.2178,1.2194,1.2187,1.2188,1.219,1.2195,1.2195,1.2185,1.2174,1.2181,1.2175,1.2164,1.2175,1.2166,1.2167,1.2178,1.2189,1.2191,1.2192,1.2214,1.2219,1.2223,0,0,0,0,0,0,1.2202,1.2193,1.2185,1.22,1.2199,1.2191,1.22,1.219,1.2191,1.2189,1.2176,1.2175,1.2186,1.2183,1.2173,1.2194,1.218,1.2182,1.2196,1.22,1.2204,1.2204,1.2154,0,0,0,0,0,1.2209,1.2215,1.2206,1.222,1.222,1.221,1.2212,1.2204,1.2202,1.2201,1.2195,1.2193,1.2196,1.2198,1.22,1.2215,1.2213,1.2223,1.2226,1.2229,1.2231,1.2238,1.2242,1.2199,1.2199,1.2199,0,0,1.2224,1.222,1.2224,1.2225,1.2223,1.2228,1.221,1.2216,1.222,1.2202,1.221,1.2206,1.2203,1.2215,1.222,1.2213,1.2242,1.2231,1.2234,1.2234,1.224,1.2244,1.2248,1.22,1.22,1.22,0,0,1.2254,1.2251,1.2262,1.226,1.2257,1.225,1.2252,1.2246,1.2243,1.2251,1.2237,1.2241,1.2246,1.2244,1.2243,1.227,1.226,1.2271,1.2289,1.2296,1.2299,1.2302,1.2311,1.2315,1.2273,1.2273,1.2273,0,1.2273,1.228,1.2269,1.2276,1.2276,1.226,1.227,1.2269,1.2266,1.2266,1.2258,1.2263,1.226,1.2271,1.2277,1.2278,1.2279,1.2272,1.23,1.2303,1.2305,1.2313,1.2317,1.2275,1.2275,1.2274,1.2274,0,1.2303,1.2309,1.2318,1.2315,1.2317,1.2326,1.2315,1.2317,1.2309,1.2303,1.2311,1.2306,1.2306,1.2308,1.23,1.2317,1.2313,1.2302,1.2287,1.2311,1.2318,1.2322,1.2277,1.2276,1.2276,1.2275,0,0,1.2349,1.2339,1.2343,1.2341,1.2335,1.2339,1.2347,1.2347,1.2349,1.2347,1.2353,1.2357,1.2346,1.2346,1.2337,1.2343,1.2364,1.2332,1.2331,1.2338,1.2382,1.2389,1.2393,1.2357,1.2357,1.2358,1.2382,0,1.2377,1.239,1.2379,1.2393,1.2397,1.2381,1.2387,1.2384,1.2378,1.238,1.2373,1.2376,1.2363,1.2362,1.2367,1.236,1.2372,1.2358,1.2361,1.2361,1.2362,1.2398,1.2406,1.2429,1.2385,1.2385,1.2386,0,1.2411,1.2411,1.2426,1.2418,1.2419,1.2425,1.2424,1.2426,1.2422,1.2417,1.2416,1.2405,1.2411,1.2396,1.2403,1.2394,1.2394,1.239,1.2391,1.2391,1.2375,1.2398,1.2437,1.244,1.239,1.239,1.239,0,1.2443,1.2446,1.2455,1.2454,1.2445,1.2449,1.2446,1.244,1.2441,1.2439,1.2439,1.2438,1.2438,1.2437,1.2426,1.2417,1.2434,1.2419,1.243,1.243,1.2435,1.2435,1.2474,1.2435,1.2435,1.2435,1.2435,0,1.2475,1.2484,1.2468,1.2474,1.2484,1.2471,1.248,1.2475,1.247,1.2474,1.2459,1.2463,1.2448,1.245,1.2441,1.2448,1.2448,1.2444,1.2441,1.2445,1.2445,1.2445,1.2443,1.2436,1.2436,1.2436,1.2435,0,1.2512,1.2501,1.251,1.2501,1.2498,1.2506,1.2498,1.2502,1.2494,1.2499,1.2499,1.2487,1.2489,1.2477,1.2476,1.247,1.2481,1.2476,1.2483,1.2481,1.2492,1.2491,1.2532,1.2537,1.2496,1.2496,1.2496,0,1.2533,1.254,1.2531,1.2532,1.2529,1.2532,1.2532,1.2519,1.2519,1.2514,1.2518,1.2518,1.2518,1.252,1.2511,1.251,1.2504,1.2518,1.2504,1.2507,1.2504,1.2503,1.2504,1.2522,1.2522,1.2523,1.2523,0,1.2571,1.2566,1.2566,1.2565,1.2566,1.2564,1.2561,1.2563,1.2549,1.255,1.2551,1.255,1.2548,1.2548,1.2545,1.2541,1.2529,1.2527,1.253,1.2534,1.2537,1.2535,1.2491,1.2527,1.2526,1.2526,1.2526,1.2526,1.2601,1.2606,1.26,1.2601,1.2597,1.2595,1.2598,1.259,1.2591,1.2589,1.2581,1.2583,1.2577,1.2571,1.2568,1.2569,1.2562,1.2565,1.2566,1.2567,1.2569,1.2537,1.2568,1.2568,1.2568,1.2568,1.2568,0,1.2638,1.2633,1.2634,1.2631,1.2631,1.262,1.2616,1.2617,1.2619,1.2615,1.2614,1.2614,1.2613,1.2604,1.2602,1.2604,1.2599,1.2604,1.2604,1.2603,1.2576,1.2574,1.2609,1.2609,1.2609,1.2609,1.2609,1.2609,1.2657,1.2665,1.2658,1.2663,1.2658,1.266,1.2659,1.2656,1.2652,1.2653,1.2652,1.2646,1.2639,1.2636,1.2635,1.2632,1.2632,1.2639,1.2634,1.2609,1.2605,1.2601,1.2599,1.2639,1.2639,1.2661,1.2661,1.2661]}]]